GW1821 Weather Reports


time (UTC)temp
C
wind
direction
speed
KPH
gust
KPH
rain 1hr
cm
rain 24hr
cm
rain mn
cm
humidity
%
barometer
mb
20260510045233 6 325 0.0 0.0 0.00 0.10 0.10 61 1012.8
20260510044714 7 325 0.0 0.0 0.00 0.10 0.10 60 1012.7
20260510044201 7 325 0.0 0.0 0.00 0.10 0.10 59 1012.7
20260510043658 7 325 0.0 0.0 0.00 0.10 0.10 58 1012.7
20260510043404 7 325 0.0 0.0 0.00 0.10 0.10 58 1012.7
20260510042912 7 325 0.0 0.0 0.00 0.10 0.10 58 1012.6
20260510042357 7 325 0.0 0.0 0.00 0.10 0.10 57 1012.6
20260510041636 8 325 0.0 0.0 0.00 0.10 0.10 56 1012.6
20260510041129 8 325 0.0 0.0 0.00 0.10 0.10 55 1012.6
20260510040624 8 325 0.0 4.8 0.00 0.10 0.10 54 1012.6
20260510040108 8 325 0.0 4.8 0.00 0.10 0.10 53 1012.6
20260510040036 8 325 1.6 4.8 0.00 0.10 0.10 52 1012.6
20260510035045 8 325 1.6 4.8 0.00 0.10 0.10 51 1012.6
20260510034819 8 325 1.6 8.0 0.00 0.10 0.10 51 1012.6
20260510034039 9 327 3.2 8.0 0.00 0.10 0.10 50 1012.5
20260510033534 9 331 3.2 8.0 0.00 0.10 0.10 50 1012.6
20260510033300 9 331 1.6 8.0 0.00 0.10 0.10 49 1012.4
20260510032529 10 331 3.2 8.0 0.00 0.10 0.10 49 1012.4
20260510032028 10 331 3.2 8.0 0.00 0.10 0.10 48 1012.3
20260510031526 10 336 3.2 6.4 0.00 0.10 0.10 48 1012.3
20260510031023 10 339 3.2 6.4 0.00 0.10 0.10 47 1012.2
20260510030514 10 336 3.2 8.0 0.00 0.10 0.10 46 1012.1
20260510030012 10 341 3.2 8.0 0.00 0.10 0.10 46 1012.0
20260510025510 10 336 3.2 9.7 0.00 0.10 0.10 46 1011.9
20260510025011 10 335 3.2 9.7 0.00 0.10 0.10 47 1011.7
20260510024505 11 329 3.2 6.4 0.00 0.10 0.10 44 1011.7
20260510024006 11 324 3.2 6.4 0.00 0.10 0.10 43 1011.5
20260510023504 11 325 3.2 8.0 0.00 0.10 0.10 43 1011.3
20260510023002 11 328 3.2 8.0 0.00 0.10 0.10 43 1011.1
20260510022458 11 327 1.6 8.0 0.00 0.10 0.10 43 1011.0
20260510021952 11 317 1.6 6.4 0.00 0.10 0.10 42 1010.9
20260510021442 12 321 3.2 6.4 0.00 0.10 0.10 42 1010.8
20260510020942 12 321 3.2 6.4 0.00 0.10 0.10 41 1010.7
20260510020443 12 323 3.2 8.0 0.00 0.10 0.10 40 1010.6
20260510020410 12 334 4.8 12.9 0.00 0.10 0.10 40 1010.5
20260510015424 12 322 4.8 17.7 0.00 0.10 0.10 39 1010.4
20260510014924 12 323 4.8 17.7 0.00 0.10 0.10 39 1010.3
20260510014424 13 338 4.8 17.7 0.00 0.10 0.10 38 1010.1
20260510014143 13 298 6.4 17.7 0.00 0.10 0.10 38 1010.1
20260510013419 13 320 6.4 14.5 0.00 0.10 0.10 37 1010.0
20260510013139 13 303 6.4 16.1 0.00 0.10 0.10 38 1009.9
20260510012414 13 313 6.4 16.1 0.00 0.10 0.10 38 1009.8
20260510011915 13 278 6.4 14.5 0.00 0.10 0.10 37 1009.7
20260510011413 13 336 8.0 19.3 0.00 0.10 0.10 37 1009.6
20260510010916 13 310 8.0 20.9 0.00 0.10 0.10 37 1009.5
20260510010410 13 342 8.0 20.9 0.00 0.10 0.10 36 1009.5
20260510005910 14 289 8.0 20.9 0.00 0.10 0.10 36 1009.4
20260510005636 14 285 8.0 20.9 0.00 0.10 0.10 36 1009.3
20260510004911 14 257 8.0 17.7 0.00 0.10 0.10 35 1009.2
20260510004402 14 286 8.0 17.7 0.00 0.10 0.10 35 1009.2
20260510003902 14 343 8.0 22.5 0.00 0.10 0.10 35 1009.2
20260510003402 15 305 8.0 22.5 0.00 0.10 0.10 35 1009.2
20260510002902 15 288 6.4 22.5 0.00 0.10 0.10 35 1009.1
20260510002400 15 329 6.4 19.3 0.00 0.10 0.10 35 1009.0
20260510002117 15 292 8.0 19.3 0.00 0.10 0.10 34 1009.0
20260510001401 15 309 6.4 19.3 0.00 0.10 0.10 34 1008.9
20260510000858 15 322 6.4 20.9 0.00 0.10 0.10 34 1008.8
20260510000616 15 318 6.4 20.9 0.00 0.10 0.10 34 1008.7
20260509235854 16 340 8.0 20.9 0.00 0.10 0.10 34 1008.6
20260509235353 16 323 8.0 20.9 0.00 0.10 0.10 34 1008.6
20260509234849 16 340 8.0 20.9 0.00 0.10 0.10 34 1008.6
20260509234349 16 325 9.7 29.0 0.00 0.10 0.10 34 1008.6
20260509233850 16 312 11.3 29.0 0.00 0.10 0.10 34 1008.5
20260509233350 16 309 11.3 25.7 0.00 0.10 0.10 34 1008.5
20260509232848 16 257 8.0 24.1 0.00 0.10 0.10 35 1008.3
20260509232346 16 300 6.4 27.4 0.00 0.10 0.10 34 1008.3
20260509231842 15 337 8.0 27.4 0.00 0.10 0.10 34 1008.2
20260509231342 15 326 9.7 27.4 0.00 0.10 0.10 34 1008.3
20260509230834 16 242 8.0 27.4 0.00 0.10 0.10 33 1008.3
20260509230334 16 293 8.0 24.1 0.00 0.10 0.10 35 1008.2
20260509230056 16 313 9.7 24.1 0.00 0.10 0.10 34 1008.2
20260509225335 16 30 9.7 24.1 0.00 0.10 0.10 36 1008.2
20260509224829 15 313 8.0 24.1 0.00 0.10 0.10 35 1008.1
20260509224329 16 295 9.7 25.7 0.00 0.10 0.10 33 1008.0
20260509223834 16 288 11.3 25.7 0.00 0.10 0.10 34 1008.0
20260509223329 16 297 9.7 19.3 0.00 0.10 0.10 34 1008.0
20260509222828 16 274 8.0 20.9 0.00 0.10 0.10 35 1008.0
20260509222329 16 290 8.0 20.9 0.00 0.10 0.10 34 1008.0
20260509221826 16 336 6.4 20.9 0.00 0.10 0.10 35 1008.0
20260509221540 16 333 8.0 20.9 0.00 0.10 0.10 36 1007.9
20260509220824 16 19 8.0 22.5 0.00 0.10 0.10 37 1007.9
20260509220321 16 299 8.0 22.5 0.00 0.10 0.10 38 1007.9
20260509215819 16 304 6.4 22.5 0.00 0.10 0.10 39 1007.9
20260509215813 16 292 8.0 22.5 0.00 0.10 0.10 34 1007.8
20260509214815 16 9 9.7 22.5 0.00 0.10 0.10 33 1007.8
20260509214306 16 271 8.0 24.1 0.00 0.10 0.10 35 1007.7
20260509213800 16 24 9.7 24.1 0.00 0.10 0.10 35 1007.7
20260509213530 16 332 11.3 27.4 0.00 0.10 0.10 35 1007.7
20260509212758 16 292 12.9 27.4 0.00 0.10 0.10 33 1007.7
20260509212255 16 311 9.7 25.7 0.00 0.10 0.10 35 1007.4
20260509211754 16 300 9.7 19.3 0.00 0.10 0.10 34 1007.6
20260509211251 16 41 9.7 25.7 0.00 0.10 0.10 34 1007.6
20260509210753 16 305 9.7 25.7 0.00 0.10 0.10 33 1007.4
20260509210254 16 319 9.7 27.4 0.00 0.10 0.10 34 1007.4
20260509205751 16 355 9.7 27.4 0.00 0.10 0.10 39 1007.4
20260509205252 16 10 11.3 30.6 0.00 0.10 0.10 40 1007.3
20260509204743 16 329 12.9 30.6 0.00 0.10 0.10 35 1007.3
20260509204246 16 294 11.3 30.6 0.00 0.10 0.10 32 1007.2
20260509203744 16 277 8.0 25.7 0.00 0.10 0.10 36 1007.3
20260509203240 16 319 9.7 25.7 0.00 0.10 0.10 35 1007.3
20260509202738 16 298 12.9 29.0 0.00 0.10 0.10 35 1007.1
20260509202240 16 278 11.3 29.0 0.00 0.10 0.10 35 1007.3
20260509201738 16 336 8.0 22.5 0.00 0.10 0.10 38 1007.1
20260509201235 16 334 8.0 27.4 0.00 0.10 0.10 37 1007.1
20260509200734 15 292 9.7 30.6 0.00 0.10 0.10 37 1007.0
20260509200236 16 287 11.3 30.6 0.00 0.10 0.10 39 1007.0
20260509195635 15 299 11.3 22.5 0.00 0.10 0.10 40 1006.9
20260509195135 15 304 11.3 30.6 0.00 0.10 0.10 39 1007.0
20260509194636 15 321 14.5 30.6 0.00 0.10 0.10 38 1006.9
20260509194129 15 325 14.5 30.6 0.00 0.10 0.10 38 1007.0
20260509193628 15 329 11.3 30.6 0.00 0.10 0.10 37 1006.8
20260509193130 15 220 11.3 30.6 0.00 0.10 0.10 36 1006.8
20260509192604 15 266 12.9 30.6 0.00 0.10 0.10 37 1006.8
20260509192102 15 297 11.3 30.6 0.00 0.10 0.10 38 1006.7
20260509191557 16 355 11.3 27.4 0.00 0.10 0.10 38 1006.7
20260509191057 15 325 9.7 27.4 0.00 0.10 0.10 40 1006.6
20260509190556 15 286 8.0 24.1 0.00 0.10 0.10 38 1006.6
20260509190051 16 322 11.3 30.6 0.00 0.10 0.10 40 1006.6
20260509185818 15 5 11.3 30.6 0.00 0.10 0.10 40 1006.7
20260509185049 16 290 9.7 20.9 0.00 0.10 0.10 40 1006.5
20260509184544 15 306 9.7 20.9 0.00 0.10 0.10 39 1006.5
20260509184534 15 340 9.7 27.4 0.00 0.10 0.10 41 1006.4
20260509183542 15 326 11.3 30.6 0.00 0.10 0.10 38 1006.5
20260509183041 15 355 12.9 30.6 0.00 0.10 0.10 39 1006.4
20260509182537 15 308 11.3 25.7 0.00 0.10 0.10 42 1006.5
20260509182034 15 296 11.3 22.5 0.00 0.10 0.10 41 1006.4
20260509181533 15 309 11.3 30.6 0.00 0.10 0.10 43 1006.4
20260509181029 15 275 9.7 30.6 0.00 0.10 0.10 40 1006.4
20260509180527 14 307 6.4 20.9 0.00 0.10 0.10 44 1006.4
20260509180023 14 342 6.4 20.9 0.00 0.10 0.10 43 1006.3
20260509175524 14 330 9.7 27.4 0.00 0.10 0.10 47 1006.3
20260509175020 14 337 9.7 27.4 0.00 0.10 0.10 45 1006.4
20260509174521 13 5 9.7 24.1 0.00 0.10 0.10 45 1006.2
20260509174015 13 338 9.7 24.1 0.00 0.10 0.10 44 1006.2
20260509173515 13 299 8.0 30.6 0.00 0.10 0.10 45 1006.1
20260509173013 13 303 8.0 30.6 0.00 0.10 0.10 45 1006.1
20260509172514 13 11 9.7 30.6 0.00 0.10 0.10 44 1006.1
20260509172233 13 296 9.7 30.6 0.00 0.10 0.10 44 1006.1
20260509171510 13 284 9.7 24.1 0.00 0.10 0.10 50 1006.0
20260509171007 13 22 11.3 24.1 0.00 0.10 0.10 46 1005.9
20260509170508 13 346 11.3 25.7 0.00 0.10 0.10 49 1006.0
20260509170008 13 300 9.7 25.7 0.00 0.10 0.10 45 1006.0
20260509165727 13 347 8.0 24.1 0.00 0.10 0.10 48 1005.8
20260509165234 13 288 9.7 24.1 0.00 0.10 0.10 49 1005.9
20260509164503 13 0 9.7 24.1 0.00 0.10 0.10 49 1005.9
20260509164003 13 294 8.0 24.1 0.00 0.10 0.10 51 1005.7
20260509163504 12 306 9.7 24.1 0.00 0.10 0.10 53 1005.7
20260509163001 12 314 9.7 20.9 0.00 0.10 0.10 52 1005.6
20260509162459 12 327 9.7 27.4 0.00 0.10 0.10 52 1005.6
20260509161957 12 333 9.7 27.4 0.00 0.10 0.10 52 1005.6
20260509161456 12 349 9.7 25.7 0.00 0.10 0.10 55 1005.5
20260509161220 13 18 9.7 25.7 0.00 0.10 0.10 53 1005.5
20260509160454 13 304 9.7 25.7 0.00 0.10 0.10 53 1005.4
20260509160209 13 304 9.7 25.7 0.00 0.10 0.10 53 1005.3
20260509155450 13 351 8.0 20.9 0.00 0.10 0.10 56 1005.3
20260509154950 12 348 8.0 27.4 0.00 0.10 0.10 55 1005.2
20260509154449 12 329 9.7 27.4 0.00 0.10 0.10 55 1005.1
20260509153944 12 329 9.7 24.1 0.00 0.10 0.10 57 1005.0
20260509153439 12 5 9.7 24.1 0.00 0.10 0.10 58 1004.9
20260509152936 12 330 9.7 25.7 0.00 0.10 0.10 56 1004.9
20260509152437 12 272 9.7 25.7 0.00 0.10 0.10 60 1004.8
20260509151936 12 355 9.7 24.1 0.00 0.10 0.10 59 1004.7
20260509151434 12 335 8.0 19.3 0.00 0.10 0.10 60 1004.6
20260509150932 12 303 9.7 22.5 0.00 0.10 0.10 65 1004.6
20260509150429 11 300 9.7 22.5 0.00 0.10 0.10 62 1004.4
20260509145927 11 318 9.7 20.9 0.00 0.10 0.10 63 1004.4
20260509145657 11 311 8.0 20.9 0.00 0.10 0.10 64 1004.3
20260509144925 11 327 8.0 19.3 0.00 0.10 0.10 67 1004.2
20260509144425 11 321 8.0 19.3 0.00 0.10 0.10 66 1004.1
20260509143925 11 294 6.4 19.3 0.00 0.10 0.10 68 1004.1
20260509143427 11 305 6.4 20.9 0.00 0.10 0.10 71 1004.1
20260509143146 11 313 8.0 20.9 0.00 0.10 0.10 70 1004.1
20260509142423 11 315 8.0 25.7 0.00 0.10 0.10 69 1004.0
20260509141924 11 308 8.0 25.7 0.00 0.10 0.10 70 1004.0
20260509141421 11 327 8.0 25.7 0.00 0.10 0.10 71 1004.0
20260509140910 10 303 6.4 25.7 0.00 0.10 0.10 72 1003.9
20260509140410 10 17 8.0 24.1 0.00 0.10 0.10 75 1003.9
20260509135912 10 315 9.7 24.1 0.00 0.10 0.10 74 1003.8
20260509135409 10 0 9.7 22.5 0.00 0.10 0.10 76 1003.8
20260509135131 10 298 9.7 24.1 0.00 0.10 0.10 76 1003.6
20260509134407 10 331 6.4 24.1 0.00 0.10 0.10 78 1003.6
20260509133907 10 314 6.4 16.1 0.00 0.10 0.10 80 1003.5
20260509133406 10 323 6.4 17.7 0.00 0.10 0.10 82 1003.5
20260509132907 10 304 4.8 17.7 0.00 0.10 0.10 83 1003.4
20260509132405 9 355 6.4 12.9 0.00 0.10 0.10 84 1003.4
20260509131906 9 36 6.4 16.1 0.00 0.10 0.10 84 1003.2
20260509131407 9 355 4.8 16.1 0.00 0.10 0.10 85 1003.2
20260509130908 9 286 4.8 16.1 0.00 0.10 0.10 85 1003.1
20260509130403 9 306 3.2 16.1 0.00 0.10 0.10 86 1002.9
20260509125903 9 310 3.2 8.0 0.00 0.10 0.10 87 1002.8
20260509125403 9 309 4.8 12.9 0.00 0.10 0.10 87 1002.8
20260509124901 9 330 4.8 12.9 0.00 0.10 0.10 87 1002.8
20260509124355 9 319 4.8 16.1 0.00 0.10 0.10 87 1002.7
20260509123849 9 355 4.8 16.1 0.00 0.10 0.10 88 1002.8
20260509123348 9 293 4.8 12.9 0.00 0.10 0.10 88 1002.6
20260509122845 8 304 4.8 12.9 0.00 0.10 0.10 88 1002.5
20260509122345 9 291 3.2 12.9 0.00 0.10 0.10 89 1002.4
20260509121845 8 336 3.2 12.9 0.00 0.10 0.10 89 1002.3
20260509121339 8 334 4.8 12.9 0.00 0.10 0.10 89 1002.4
20260509121057 8 346 4.8 12.9 0.00 0.10 0.10 89 1002.3
20260509120334 8 311 4.8 12.9 0.00 0.10 0.10 90 1002.2
20260509120049 8 313 4.8 11.3 0.00 0.10 0.10 90 1002.1
20260509115329 8 306 3.2 11.3 0.00 0.10 0.10 90 1001.9
20260509114831 8 250 3.2 9.7 0.00 0.10 0.10 91 1001.8
20260509114326 8 281 1.6 9.7 0.00 0.10 0.10 90 1001.8
20260509113822 8 315 1.6 4.8 0.00 0.10 0.10 90 1001.7
20260509113323 8 319 0.0 4.8 0.00 0.10 0.10 90 1001.6
20260509113048 8 319 0.0 4.8 0.00 0.10 0.10 90 1001.5
20260509112753 8 319 1.6 4.8 0.03 0.10 0.10 90 1001.3
20260509112037 8 319 1.6 4.8 0.03 0.10 0.10 90 1001.3
20260509111321 8 319 0.0 4.8 0.05 0.10 0.10 89 1001.1
20260509110808 8 319 0.0 3.2 0.05 0.10 0.10 89 1000.9
20260509110306 8 319 0.0 3.2 0.05 0.10 0.10 89 1000.8
20260509105804 8 319 0.0 3.2 0.05 0.10 0.10 89 1000.7
20260509105257 8 319 0.0 3.2 0.05 0.10 0.10 89 1000.7
20260509104753 8 319 1.6 4.8 0.05 0.10 0.10 89 1000.6
20260509104254 8 319 1.6 6.4 0.05 0.10 0.10 89 1000.6
20260509103749 8 319 1.6 6.4 0.08 0.10 0.10 88 1000.6
20260509103505 8 314 1.6 3.2 0.08 0.10 0.10 88 1000.4
20260509102745 9 314 0.0 1.6 0.08 0.10 0.10 87 1000.3
20260509102216 9 314 0.0 3.2 0.08 0.08 0.08 87 1000.4
20260509102144 9 314 0.0 3.2 0.08 0.08 0.08 86 1000.3
20260509101155 9 314 0.0 1.6 0.05 0.05 0.05 86 1000.1
20260509100648 9 314 0.0 1.6 0.05 0.05 0.05 85 1000.4
20260509100142 9 314 0.0 4.8 0.05 0.05 0.05 85 1000.3
20260509095839 9 314 0.0 4.8 0.05 0.05 0.05 85 1000.3
20260509095329 10 314 1.6 4.8 0.05 0.05 0.05 84 1000.2
20260509094609 10 314 1.6 4.8 0.05 0.05 0.05 83 1000.1
20260509094103 10 313 1.6 4.8 0.05 0.05 0.05 81 1000.3
20260509093601 10 313 1.6 12.9 0.03 0.03 0.03 80 1000.4
20260509093056 10 313 1.6 12.9 0.03 0.03 0.03 78 1000.5
20260509092559 11 313 3.2 12.9 0.03 0.03 0.03 77 1000.7
20260509092052 11 313 4.8 19.3 0.00 0.00 0.00 74 1000.6
20260509091551 11 317 6.4 19.3 0.00 0.00 0.00 71 1000.7
20260509091535 11 301 4.8 14.5 0.00 0.00 0.00 68 1000.7
20260509090548 11 298 4.8 12.9 0.00 0.00 0.00 66 1000.5
20260509090045 11 327 3.2 9.7 0.00 0.00 0.00 66 1000.4
20260509085543 11 327 3.2 9.7 0.00 0.00 0.00 64 1000.1
20260509085042 11 314 3.2 9.7 0.00 0.00 0.00 63 1000.2
20260509084542 11 311 4.8 14.5 0.00 0.00 0.00 61 1000.3
20260509084042 11 317 6.4 16.1 0.00 0.00 0.00 61 1000.3
20260509083540 12 282 6.4 16.1 0.00 0.00 0.00 61 1000.3
20260509083039 12 328 6.4 16.1 0.00 0.00 0.00 61 1000.2
20260509082537 12 300 8.0 17.7 0.00 0.00 0.00 58 1000.2
20260509082037 12 319 8.0 22.5 0.00 0.00 0.00 58 1000.2
20260509081537 11 5 8.0 22.5 0.00 0.00 0.00 56 1000.1
20260509081035 11 329 4.8 16.1 0.00 0.00 0.00 55 1000.2
20260509080533 11 301 4.8 14.5 0.00 0.00 0.00 53 1000.1
20260509080032 11 321 3.2 8.0 0.00 0.00 0.00 53 1000.1
20260509075528 11 309 3.2 9.7 0.00 0.00 0.00 52 1000.1
20260509075255 11 286 3.2 9.7 0.00 0.00 0.00 52 1000.0
20260509074530 11 236 3.2 9.7 0.00 0.00 0.00 52 999.8
20260509074300 10 301 3.2 6.4 0.00 0.00 0.00 53 999.7
20260509073526 10 291 1.6 4.8 0.00 0.00 0.00 55 999.5
20260509073009 10 291 1.6 4.8 0.00 0.00 0.00 58 999.6
20260509072510 10 291 1.6 4.8 0.00 0.00 0.00 58 999.6
20260509072001 10 291 1.6 4.8 0.00 0.00 0.00 60 999.5
20260509071450 10 291 0.0 3.2 0.00 0.00 0.00 61 999.6
20260509070950 10 291 0.0 3.2 0.00 0.00 0.00 61 999.5
20260509070449 10 291 0.0 3.2 0.00 0.00 0.00 60 999.6
20260509070142 10 291 0.0 3.2 0.00 0.00 0.00 58 999.5
20260509065418 10 291 0.0 3.2 0.00 0.00 0.00 58 999.6
20260509065139 10 291 0.0 3.2 0.00 0.00 0.00 59 999.6
20260509064409 10 291 0.0 3.2 0.00 0.00 0.00 59 999.7
20260509064124 9 291 0.0 3.2 0.00 0.00 0.00 58 999.6
20260509063357 9 291 1.6 4.8 0.00 0.00 0.00 61 999.6
20260509062821 9 291 1.6 4.8 0.00 0.00 0.00 60 999.4
20260509062815 9 291 0.0 3.2 0.00 0.00 0.00 61 999.4
20260509061817 9 291 0.0 1.6 0.00 0.00 0.00 60 999.5
20260509061311 9 291 0.0 1.6 0.00 0.00 0.00 59 999.6
20260509060811 10 291 0.0 1.6 0.00 0.00 0.00 59 999.5
20260509060311 10 291 0.0 3.2 0.00 0.00 0.00 59 999.5
20260509055809 10 291 0.0 3.2 0.00 0.00 0.00 60 999.3
20260509055253 10 291 0.0 3.2 0.00 0.00 0.00 59 999.4
20260509054749 10 291 0.0 3.2 0.00 0.00 0.00 54 999.5
20260509054234 10 291 0.0 1.6 0.00 0.00 0.00 53 999.6
20260509053730 10 291 0.0 1.6 0.00 0.00 0.00 54 999.7
20260509053226 10 291 0.0 1.6 0.00 0.00 0.00 51 999.8
20260509052721 10 291 0.0 1.6 0.00 0.00 0.00 53 1000.0
20260509052219 10 291 0.0 1.6 0.00 0.00 0.00 51 1000.0
20260509051718 10 291 0.0 1.6 0.00 0.00 0.00 50 1000.1
20260509051429 11 291 0.0 1.6 0.00 0.00 0.00 49 1000.1
20260509050650 11 291 0.0 1.6 0.00 0.00 0.00 49 1000.1
20260509050143 11 291 0.0 1.6 0.00 0.00 0.00 47 1000.0
20260509045638 11 291 0.0 1.6 0.00 0.00 0.00 47 1000.1